TimeEDT,TemperatureF,Dew PointF,Humidity,Sea Level PressureIn,VisibilityMPH,Wind Direction,Wind SpeedMPH,Gust SpeedMPH,PrecipitationIn,Events,Conditions,WindDirDegrees,DateUTC
12:15 AM,81.1,65.7,59,30.04,10.0,SW,5.8,-,N/A,,Clear,220,2013-09-11 04:15:00
12:35 AM,80.8,65.5,59,30.05,10.0,SW,4.6,-,N/A,,Clear,230,2013-09-11 04:35:00
12:54 AM,80.2,65.5,61,30.05,10.0,SW,4.6,-,N/A,,Clear,230,2013-09-11 04:54:00
1:15 AM,79.7,65.7,62,30.05,10.0,SW,4.6,-,N/A,,Clear,230,2013-09-11 05:15:00
1:34 AM,79.7,65.1,61,30.05,10.0,SW,5.8,-,N/A,,Clear,220,2013-09-11 05:34:00
1:55 AM,80.1,63.5,57,30.05,10.0,SW,8.1,-,N/A,,Clear,230,2013-09-11 05:55:00
2:15 AM,79.0,63.7,59,30.04,10.0,SW,6.9,-,N/A,,Clear,230,2013-09-11 06:15:00
2:34 AM,78.3,63.7,61,30.04,10.0,SW,6.9,-,N/A,,Clear,230,2013-09-11 06:34:00
2:55 AM,77.9,63.5,61,30.05,10.0,SW,8.1,-,N/A,,Clear,230,2013-09-11 06:55:00
3:14 AM,77.9,63.1,60,30.05,10.0,SW,8.1,-,N/A,,Clear,220,2013-09-11 07:14:00
3:34 AM,77.2,63.0,61,30.05,10.0,SW,5.8,-,N/A,,Clear,230,2013-09-11 07:34:00
3:55 AM,76.6,63.1,63,30.04,10.0,SW,5.8,-,N/A,,Clear,230,2013-09-11 07:55:00
4:14 AM,76.3,63.5,64,30.04,10.0,SW,4.6,-,N/A,,Clear,230,2013-09-11 08:14:00
4:35 AM,76.1,63.5,65,30.04,10.0,SW,3.5,-,N/A,,Clear,230,2013-09-11 08:35:00
4:55 AM,75.7,63.5,66,30.04,10.0,SW,4.6,-,N/A,,Clear,220,2013-09-11 08:55:00
5:14 AM,75.4,63.5,66,30.04,10.0,SW,4.6,-,N/A,,Clear,230,2013-09-11 09:14:00
5:35 AM,74.7,63.9,69,30.04,10.0,SW,4.6,-,N/A,,Clear,230,2013-09-11 09:35:00
5:55 AM,74.3,64.4,71,30.04,10.0,SW,5.8,-,N/A,,Clear,230,2013-09-11 09:55:00
6:14 AM,74.3,64.9,72,30.05,10.0,SW,4.6,-,N/A,,Clear,230,2013-09-11 10:14:00
6:35 AM,73.8,65.7,76,30.05,10.0,SW,5.8,-,N/A,,Clear,220,2013-09-11 10:35:00
6:55 AM,73.9,65.8,76,30.05,10.0,SW,5.8,-,N/A,,Clear,220,2013-09-11 10:55:00
7:14 AM,73.6,66.2,78,30.05,10.0,SW,4.6,-,N/A,,Clear,220,2013-09-11 11:14:00
7:35 AM,73.4,66.2,78,30.05,10.0,SW,5.8,-,N/A,,Clear,220,2013-09-11 11:35:00
7:55 AM,74.3,66.9,78,30.06,10.0,SW,5.8,-,N/A,,Clear,220,2013-09-11 11:55:00
8:14 AM,74.5,67.1,78,30.06,10.0,SW,6.9,-,N/A,,Clear,230,2013-09-11 12:14:00
8:35 AM,74.8,67.3,77,30.07,10.0,SW,6.9,-,N/A,,Clear,220,2013-09-11 12:35:00
8:55 AM,75.0,67.6,78,30.06,10.0,SW,8.1,-,N/A,,Clear,220,2013-09-11 12:55:00
9:14 AM,75.6,68.0,77,30.07,10.0,SW,8.1,-,N/A,,Clear,230,2013-09-11 13:14:00
9:35 AM,76.1,68.4,77,30.07,10.0,WSW,8.1,-,N/A,,Clear,240,2013-09-11 13:35:00
9:55 AM,77.9,68.4,72,30.06,10.0,WSW,10.4,-,N/A,,Clear,250,2013-09-11 13:55:00
10:14 AM,79.9,68.9,69,30.06,10.0,WSW,5.8,-,N/A,,Scattered Clouds,240,2013-09-11 14:14:00
10:35 AM,81.7,69.3,66,30.06,10.0,SW,5.8,-,N/A,,Scattered Clouds,220,2013-09-11 14:35:00
10:54 AM,83.8,69.6,62,30.05,10.0,SW,5.8,-,N/A,,Scattered Clouds,230,2013-09-11 14:54:00
11:14 AM,85.6,69.6,59,30.05,10.0,SW,8.1,-,N/A,,Clear,230,2013-09-11 15:14:00
11:35 AM,86.9,68.2,54,30.05,10.0,WSW,5.8,-,N/A,,Clear,250,2013-09-11 15:35:00
11:54 AM,87.8,68.2,52,30.05,10.0,SW,6.9,-,N/A,,Clear,230,2013-09-11 15:54:00
12:14 PM,88.5,67.8,50,30.04,10.0,WSW,8.1,-,N/A,,Clear,250,2013-09-11 16:14:00
12:35 PM,89.2,68.0,49,30.04,10.0,SW,8.1,-,N/A,,Clear,220,2013-09-11 16:35:00
12:54 PM,89.8,67.5,48,30.03,10.0,West,8.1,-,N/A,,Clear,260,2013-09-11 16:54:00
1:15 PM,90.7,67.1,46,30.03,10.0,SW,6.9,-,N/A,,Clear,230,2013-09-11 17:15:00
1:35 PM,91.6,66.9,44,30.03,10.0,WSW,8.1,-,N/A,,Clear,240,2013-09-11 17:35:00
1:54 PM,91.6,65.8,42,30.03,10.0,West,12.7,17.3,N/A,,Scattered Clouds,270,2013-09-11 17:54:00
2:15 PM,90.5,66.2,45,30.02,10.0,WNW,11.5,19.6,N/A,,Scattered Clouds,300,2013-09-11 18:15:00
2:34 PM,91.4,66.4,44,30.02,10.0,West,10.4,-,N/A,,Clear,280,2013-09-11 18:34:00
2:55 PM,91.9,67.1,44,30.01,10.0,SW,10.4,-,N/A,,Clear,230,2013-09-11 18:55:00
3:14 PM,91.2,66.2,44,30.00,10.0,West,5.8,-,N/A,,Clear,260,2013-09-11 19:14:00
3:35 PM,91.4,66.7,44,30.00,10.0,SW,10.4,-,N/A,,Clear,230,2013-09-11 19:35:00
3:55 PM,92.8,66.0,41,30.00,10.0,WSW,4.6,-,N/A,,Clear,250,2013-09-11 19:55:00
4:14 PM,92.3,65.8,42,29.98,10.0,SW,8.1,-,N/A,,Clear,220,2013-09-11 20:14:00
4:35 PM,92.5,66.2,42,29.97,10.0,West,6.9,-,N/A,,Scattered Clouds,260,2013-09-11 20:35:00
4:55 PM,90.7,66.4,45,29.96,10.0,WSW,5.8,-,N/A,,Mostly Cloudy,240,2013-09-11 20:55:00
5:14 PM,91.8,66.6,43,29.94,10.0,SSW,8.1,-,N/A,,Scattered Clouds,210,2013-09-11 21:14:00
5:35 PM,90.9,66.6,45,29.94,10.0,SW,9.2,-,N/A,,Clear,230,2013-09-11 21:35:00
5:54 PM,90.0,66.2,45,29.93,10.0,WSW,5.8,-,N/A,,Clear,240,2013-09-11 21:54:00
6:15 PM,89.8,66.7,46,29.95,10.0,West,3.5,-,N/A,,Mostly Cloudy,280,2013-09-11 22:15:00
6:34 PM,83.7,64.4,52,30.01,10.0,WNW,25.3,36.8,N/A,,Overcast,300,2013-09-11 22:34:00
6:55 PM,71.2,67.1,87,30.04,3.0,WNW,32.2,41.4,N/A,Rain,Heavy Rain,300,2013-09-11 22:55:00
7:14 PM,71.2,68.0,89,30.08,-9999.0,West,18.4,26.5,N/A,,Unknown,270,2013-09-11 23:14:00
7:34 PM,70.0,67.1,91,30.02,4.0,WNW,9.2,-,N/A,Rain,Heavy Rain,300,2013-09-11 23:34:00
7:54 PM,69.8,67.3,92,30.01,10.0,NNW,4.6,-,N/A,Rain,Light Rain,330,2013-09-11 23:54:00
8:15 PM,69.8,67.3,92,30.02,10.0,Calm,Calm,-,N/A,,Mostly Cloudy,0,2013-09-12 00:15:00
8:35 PM,69.8,68.0,94,30.01,7.0,Calm,Calm,-,N/A,,Overcast,0,2013-09-12 00:35:00
8:54 PM,71.1,68.2,91,30.01,10.0,Calm,Calm,-,N/A,,Scattered Clouds,0,2013-09-12 00:54:00
9:15 PM,70.9,68.4,92,30.00,10.0,Calm,Calm,-,N/A,,Scattered Clouds,0,2013-09-12 01:15:00
9:35 PM,71.1,68.5,92,30.00,10.0,Calm,Calm,-,N/A,,Scattered Clouds,0,2013-09-12 01:35:00
9:54 PM,71.1,68.9,93,30.00,10.0,Calm,Calm,-,N/A,,Clear,0,2013-09-12 01:54:00
10:15 PM,71.1,68.9,93,30.00,10.0,SSW,8.1,-,N/A,,Scattered Clouds,200,2013-09-12 02:15:00
10:35 PM,71.4,68.9,92,30.01,10.0,SW,6.9,-,N/A,,Mostly Cloudy,220,2013-09-12 02:35:00
10:54 PM,71.2,68.5,91,30.00,10.0,WSW,3.5,-,N/A,,Scattered Clouds,240,2013-09-12 02:54:00
11:15 PM,71.2,68.9,92,30.00,10.0,SW,5.8,-,N/A,,Scattered Clouds,230,2013-09-12 03:15:00
11:34 PM,71.1,68.7,92,30.00,10.0,SW,5.8,-,N/A,,Scattered Clouds,220,2013-09-12 03:34:00
11:54 PM,70.9,68.4,92,29.99,10.0,WSW,4.6,-,N/A,,Scattered Clouds,250,2013-09-12 03:54:00